Regional Weather Roundup
Issued by NWS Northern Indiana

Home | Current Version | Previous Version | Graphics & Text | Print | Product List | Glossary On
Versions: 1 2 3 4 5 6 7 8 9 10 11 12 13 14 15 16 17 18 19 20 21 22 23 24 25 26 27 28 29 30 31 32 33 34 35 36 37 38 39 40 41 42 43 44 45 46 47 48 49 50
000
ASUS43 KIWX 230210
RWRIWX

KIWX WEATHER ROUNDUP
NATIONAL WEATHER SERVICE NORTHERN INDIANA
1000 PM EDT TUE AUG 22 2017

NOTE: "FAIR" INDICATES FEW OR NO CLOUDS BELOW 12,000 FEET WITH NO
SIGNIFICANT WEATHER AND/OR OBSTRUCTIONS TO VISIBILITY.

* THESE STATIONS ARE NOT UNDER NWS QUALITY CONTROL. THEY ALSO MAY NOT
  REPORT WEATHER SUCH AS PRECIPITATION OR FOG.

INZ001>027-230300-
NORTHERN INDIANA

CITY           SKY/WX    TMP DP  RH WIND       PRES   REMARKS
GARY*          PTCLDY    73  46  38 NW9G21    29.97R
VALPARAISO     CLEAR     68  58  70 N5        29.97R
MICHIGAN CITY* MOCLDY    66  59  77 N5        29.97R
LAPORTE*       CLEAR     62  60  91 CALM      29.97R
KNOX*          CLEAR     61  59  94 CALM      29.96R
SOUTH BEND     CLEAR     62  60  93 NW3       29.97R
GOSHEN         CLEAR     65  55  70 N6        29.95R
MONTICELLO*    MOCLDY    65  62  90 NW3       29.97R
LOGANSPORT*    MOCLDY    64  61  88 N5        29.97R
ROCHESTER*     CLEAR     66  61  82 CALM      29.96R
WARSAW*        CLEAR     64  55  72 CALM      29.96R
AUBURN*        CLEAR     64  54  68 NW5       29.96R
FORT WAYNE     PTCLDY    67  58  72 N8        29.95R
HUNTINGTON*    PTCLDY    66  60  81 CALM      29.96R
PERU/GRISSOM   PTCLDY    70  62  76 N6        29.96R
MARION*        PTCLDY    66  63  88 NW5       29.97R

$$
INZ028>050-230300-
CENTRAL INDIANA

CITY           SKY/WX    TMP DP  RH WIND       PRES   REMARKS
LAFAYETTE      PTCLDY    65  63  93 NW3       29.96R
KOKOMO*        CLOUDY    71  63  75 NW8       29.97R
MUNCIE*        PTCLDY    69  63  81 W3        29.96R
INDIANAPOLIS   PTCLDY    69  61  75 NW9       29.96R

$$
MIZ043>046-050>051-056>058-064>065-071>073-077>080-230300-
SOUTHWEST LOWER MICHIGAN

CITY           SKY/WX    TMP DP  RH WIND       PRES   REMARKS
BATTLE CREEK   CLEAR     62  55  77 W6        29.94R
BENTON HARBOR  CLEAR     70  52  52 VRB6      29.95R
COLDWATER*     CLEAR     62  53  73 NW3       29.94R
HILLSDALE*     CLEAR     61  52  72 NW6       29.93R
HOLLAND        CLEAR     67  53  61 NW5       29.94R
GRAND RAPIDS   CLEAR     66  53  63 W6        29.92R
KALAMAZOO      CLEAR     64  54  69 W5        29.95R
STURGIS*       CLEAR     62  56  80 CALM      29.95R
THREE RIVERS*  FAIR      64  56  75 CALM      29.95R

$$
OHZ001>008-015>018-024>025-230300-
NORTHWEST OHIO

CITY           SKY/WX    TMP DP  RH WIND       PRES   REMARKS
WAUSEON*       FAIR      63  55  77 NW8       29.92R
DEFIANCE       CLEAR     66  55  67 NW8       29.93R
FINDLAY        CLEAR     68  59  73 NW7       29.90R
TOLEDO EXPRESS CLEAR     67  56  67 W8        29.90R
TOLEDO METCALF CLEAR     70  56  61 NW13G21   29.90R
LIMA           CLEAR     69  61  75 NW12G20   29.93R

$$
AND FOR LAKE MICHIGAN COASTAL AND OPEN LAKE BUOY OBSERVATIONS

STATION/POSITION TEMP    WIND        PRES    VSBY  WAVE
                 AIR SEA DIR/SP/G                  HT/PER
                 (F)     (DEG/KT/KT) (MB)    (MI)  (FT/S)
CALUMET HARBOR    73     300/  6/  9 1014.1R
MICHIGAN CITY     73     330/ 19/ 21   N/A
BURNS HARBOR      74     340/ 15/ 20 1014.6R
SAINT JOSEPH      73     360/ 12/ 15 1015.2
SOUTH LAKE BUOY   72 71  330/ 16/ 19 1013.5R         4/ 5
4 MI NW BRIDGMAN  73 73   10/ 14/ 17 1014.1          4/ 5
MICHIGAN CITY     73 74  360/ 12/ 16   N/A           5/ 5

$$
&&




USA.gov is the U.S. government's official web portal to all federal, state and local government web resources and services.